[Iaude] MPEC E28: 2024 EN [a=1.42,e=0.42,i=3.7,H=24.4]
    mpec at cfa.harvard.edu 
    mpec at cfa.harvard.edu
       
    Mon Mar  4 06:46:12 EST 2024
    
    
  
M.P.E.C. 2024-E28                                 Issued 2024 March 4, 11:44 UT
     The Minor Planet Electronic Circulars contain information on unusual
         minor planets, routine data on comets and natural satellites,
         and occasional editorial announcements.  They are published
    on behalf of Division F of the International Astronomical Union by the
          Minor Planet Center, Smithsonian Astrophysical Observatory,
                          Cambridge, MA 02138, U.S.A.
			  
             Prepared using the Tamkin Foundation Computer Network
                              MPC at CFA.HARVARD.EDU
            URL https://www.minorplanetcenter.net/    ISSN 1523-6714
                                    2024 EN                                     
Observations:
     K24E00N* C2024 03 02.47229911 17 10.610-05 57 13.47         20.51wXEE028F51
     K24E00N  C2024 03 02.48436611 17 11.096-05 57 20.60         20.42wXEE028F51
     K24E00N  C2024 03 02.49638311 17 11.587-05 57 27.75         20.63wXEE028F51
     K24E00N  C2024 03 02.50836311 17 12.085-05 57 34.85         20.60wXEE028F51
     K24E00N  C2024 03 02.59712411 17 16.151-05 58 26.19         20.36GVEE028F52
     K24E00N  C2024 03 02.59777111 17 16.191-05 58 26.59         20.35GVEE028F52
     K24E00N |C2024 03 03.17309011 18 03.530-06 03 17.70         20.0 GVEE028807
     K24E00N |C2024 03 03.17529611 18 03.640-06 03 19.50         19.9 GVEE028807
     K24E00N |C2024 03 03.17749011 18 03.760-06 03 20.60         20.2 GVEE028807
     K24E00N |C2024 03 03.17969011 18 03.850-06 03 21.80         19.5 GVEE028807
     K24E00N mC2024 03 03.28084811 18 11.855-06 05 48.16         20.24GVEE028I52
     K24E00N mC2024 03 03.28653111 18 12.121-06 05 51.58         20.45GVEE028I52
     K24E00N mC2024 03 03.29357911 18 12.510-06 05 56.44         20.13GVEE028I52
     K24E00N mC2024 03 03.31558311 18 13.554-06 06 11.27         20.07GVEE028I52
     K24E00N KB2024 03 03.91245911 19 03.61 -06 12 54.3          20.2 GXEE028I93
     K24E00N KB2024 03 03.92381111 19 04.33 -06 13 01.7          19.7 GXEE028I93
     K24E00N KB2024 03 03.93489211 19 04.97 -06 13 09.4          20.7 GXEE028I93
     K24E00N KC2024 03 04.23214711 19 29.12 -06 16 29.1          20.7 GVEE028H21
     K24E00N KC2024 03 04.23494611 19 29.28 -06 16 30.8          20.7 GVEE028H21
     K24E00N KC2024 03 04.23774411 19 29.44 -06 16 32.7          20.9 GVEE028H21
     K24E00N KC2024 03 04.24054211 19 29.62 -06 16 34.9          20.6 GVEE028H21
Observer details:
807 Cerro Tololo Observatory, La Serena.  Observers T. Linder, R. Holmes.
    0.61-m f/6.8 Ritchey-Chretien + CCD.
F51 Pan-STARRS 1, Haleakala.  Observers J. Herman, T. Lowe, P. Minguez, A.
    Schultz, I. Smith.  Measurers K. Chambers, T. de Boer, J. Fairlamb, H.
    Gao, M. Huber, C.-C. Lin, E. Magnier, Y. Ramanjooloo, R. Wainscoat, R.
    Weryk.  1.8-m Ritchey-Chretien + CCD.
F52 Pan-STARRS 2, Haleakala.  Observers J. Herman, T. Lowe, P. Minguez, A.
    Schultz, I. Smith.  Measurers K. Chambers, T. de Boer, J. Fairlamb, H.
    Gao, M. Huber, C.-C. Lin, E. Magnier, Y. Ramanjooloo, R. Wainscoat, R.
    Weryk.  1.8-m Ritchey-Chretien + CCD.
H21 Astronomical Research Observatory, Westfield.  Observer R. Holmes.
    Measurers T. Linder, R. Holmes, L. Horn.  0.76-m f/3.0 astrograph + CCD.
I52 Steward Observatory, Mt. Lemmon Station.  Observers T. Beuden, J. K.
    Hogan.  Measurers T. Beuden, V. F. Carvajal, D. Fay, J. B. Fazekas, D. C.
    Fuls, A. R. Gibbs, A. D. Grauer, H. Groeller, J. K. Hogan, R. A. Kowalski,
    S. M. Larson, G. J. Leonard, D. Rankin, R. L. Seaman, F. C. Shelly, K. W.
    Wierzchos.  1.0-m prime focus + CCD.
I93 St Pardon de Conques.  Observer F. Losse.  0.40-m f/3.7 reflector + CCD.
Orbital elements:
2024 EN                                                  Earth MOID = 0.0003 AU
Epoch 2024 Mar. 31.0 TT = JDT 2460400.5                 Veres                   
M 339.08131              (2000.0)            P               Q                  
n   0.58120487     Peri.   66.54752     -0.41477128     +0.90992493             
a   1.4220555      Node   178.94534     -0.85667324     -0.39005571             
e   0.4246286      Incl.    3.70975     -0.30671770     -0.14104317             
P   1.70           H   24.40          G   0.15           U   8                  
Residuals in seconds of arc
240302 F51  0.1+  0.0     240303 807  0.1-  0.3-    240303 I93  0.5+  0.4-
240302 F51  0.0   0.1+    240303 807  0.1+  0.0     240303 I93  0.5+  0.1+
240302 F51  0.1+  0.1+    240303 807  0.2-  0.3+    240303 I93  0.3-  0.2+
240302 F51  0.1+  0.0     240303 I52  0.0   0.1-    240304 H21  0.1+  0.1-
240302 F52  0.1-  0.1+    240303 I52  0.3-  0.2+    240304 H21  0.0   0.1+
240302 F52  0.0   0.0     240303 I52  0.3+  0.1-    240304 H21  0.1-  0.2+
240303 807  0.2-  0.1+    240303 I52  0.2-  0.7-    240304 H21  0.1+  0.0
Ephemeris:
2024 EN                  a,e,i = 1.42, 0.42, 4                   q = 0.8182
Date    TT    R. A. (2000) Decl.     Delta      r    Elong.  Phase     V
2024 02 03    10 58 30.4 -02 15 49   0.3561  1.2953   145.7    25.4    23.9
...
2024 02 18    11 07 16.5 -04 10 24   0.2209  1.1948   157.2    18.7    22.5
...
2024 02 26    11 12 11.4 -05 09 11   0.1569  1.1406   162.7    14.9    21.5
...
2024 03 03    11 17 49.1 -06 02 01   0.1118  1.1002   166.0    12.6    20.6
2024 03 04    11 19 08.3 -06 12 49   0.1045  1.0935   166.4    12.3    20.4
2024 03 05    11 20 38.2 -06 24 36   0.09728 1.0868   166.8    12.1    20.2
...
2024 03 11    11 37 24.9 -08 19 12   0.05495 1.0471   167.6    11.8    18.9
...
2024 03 19    17 40 43.8 -22 15 44   0.01004 0.9961    93.0    86.4    17.4
...
2024 04 03    22 42 57.6 +02 20 17   0.1069  0.9106    31.6   144.8    26.9
M. P. C. Staff               (C) Copyright 2024 MPC           M.P.E.C. 2024-E28
    
    
More information about the Iaude
mailing list